Location: Newark
(45.6439°N, 0.5436°E)
Time: 02:10:06
(UTC+00:00)

ISS - Visible Passes

Search period start: 27 February 2021 00:00
Search period end: 09 March 2021 00:00
Orbit: 417 x 422 km, 51.6° (Epoch: 27 February)

Date Brightness Start Highest point End Pass type
(mag) Time Alt. Az. Time Alt. Az. Time Alt. Az.
27 Feb -0.7 03:52:11 16° ENE 03:52:11 16° ENE 03:52:57 10° ENE visible
27 Feb -2.8 05:25:09 24° WNW 05:26:35 35° NNW 05:29:44 10° NE visible
28 Feb -2.8 04:39:33 40° N 04:39:33 40° N 04:42:17 10° NE visible
01 Mar -0.9 03:53:54 17° NE 03:53:54 17° NE 03:54:50 10° ENE visible
01 Mar -2.3 05:26:51 17° NW 05:28:44 28° N 05:31:43 10° ENE visible
02 Mar -2.4 04:41:10 31° N 04:41:10 31° N 04:44:09 10° NE visible
03 Mar -1.0 03:55:28 18° NE 03:55:28 18° NE 03:56:38 10° NE visible
03 Mar -2.3 05:28:26 13° NW 05:30:52 29° N 05:33:53 10° ENE visible
04 Mar -2.3 04:42:43 27° NNW 04:43:13 28° N 04:46:11 10° ENE visible
05 Mar -1.2 03:57:01 20° NE 03:57:01 20° NE 03:58:32 10° ENE visible
05 Mar -2.7 05:29:58 12° NW 05:32:55 39° NNE 05:36:06 10° E visible
06 Mar -2.4 04:44:17 27° NNW 04:45:16 33° NNE 04:48:21 10° ENE visible
07 Mar -1.5 03:58:37 24° NE 03:58:37 24° NE 04:00:36 10° ENE visible
07 Mar -3.6 05:31:34 11° WNW 05:34:47 71° NNE 05:38:08 10° ESE visible
08 Mar -3.1 04:45:57 32° NW 04:47:11 50° NNE 04:50:28 10° E visible
